Flag for Argentina Weather past 2 weeks in Salta, Salta, Argentina

Now
64 °F

Partly sunny.


Feels Like: 64 °F
Forecast: 56 / 67 °F
Wind: 5 mph from Northeast

Location: Salta Aerodrome


UV Index: 5 (Moderate)

Visibility: N/A


Pressure: 30.07 "Hg

Humidity: 73%

Dew point: 55 °F

Location of SaltaLocation

Historic Weather in Salta

°F

Salta temperature yesterday

Maximum temperature yesterday: 77 °F (at 3:00 PM)
Minimum temperature yesterday: 46 °F (at 8:00 AM)
Average temperature yesterday: 61 °F

Past Weeks' High & Low Weather Summary

 TemperatureHumidityPressure
High86 °F (Apr 7, 4:00 PM)100% (Apr 4, 12:00 AM)30.45 "Hg (Apr 4, 12:00 AM)
Low39 °F (Apr 15, 5:00 AM)39% (Apr 12, 3:00 PM)29.74 "Hg (Apr 7, 4:00 PM)
Average64 °F80%30.04 "Hg
* Reported Apr 3 11:00 AM — Apr 18 11:00 AM, Salta, Weather by CustomWeather, © 2014

Note: Actual official high and low records may vary slightly from our data, if they occured in-between our weather recording intervals... More about our weather records

Advertising

Historic Weather Conditions — Data for Previous 24 hours

 ConditionsComfort  
Time TempWeatherWind HumidityBarometerVisibility
11:00 AM
Apr 18
63 °FBroken clouds.5 mph77%30.09 "HgN/A
10:00 AM61 °FPartly sunny.5 mph83%30.09 "HgN/A
9:00 AM59 °FMore clouds than sun.6 mph88%30.09 "HgN/A
8:00 AM59 °FPartly sunny.3 mph88%30.09 "HgN/A
7:00 AM59 °FBroken clouds.5 mph88%30.07 "HgN/A
6:00 AM59 °FLow clouds.No wind94%30.07 "Hg4 mi
5:00 AM59 °FLow clouds.5 mph88%30.09 "HgN/A
4:00 AM61 °FLow clouds.5 mph88%30.09 "Hg5 mi
3:00 AM61 °FMostly cloudy.5 mph88%30.09 "Hg5 mi
2:00 AM61 °FMostly cloudy.6 mph88%30.12 "Hg5 mi
1:00 AM61 °FMostly cloudy.6 mph88%30.12 "Hg5 mi
12:00 AM63 °FPassing clouds.6 mph77%30.12 "HgN/A
11:00 PM
Apr 17
63 °FPassing clouds.3 mph77%30.15 "HgN/A
10:00 PM64 °FPartly cloudy.9 mph73%30.12 "HgN/A
9:00 PM64 °FPassing clouds.9 mph73%30.09 "HgN/A
8:00 PM64 °FPassing clouds.6 mph73%30.07 "HgN/A
7:00 PM66 °FPassing clouds.5 mph68%30.04 "HgN/A
6:00 PM72 °FScattered clouds.12 mph53%30.04 "HgN/A
5:00 PM73 °FScattered clouds.13 mph53%30.04 "HgN/A
4:00 PM77 °FPartly sunny.7 mph47%30.01 "HgN/A
3:00 PM77 °FPartly sunny.3 mph47%30.01 "HgN/A
2:00 PM73 °FPartly sunny.2 mph53%30.04 "HgN/A
1:00 PM73 °FScattered clouds.6 mph53%30.07 "HgN/A
12:00 PM70 °FPassing clouds.2 mph60%30.07 "HgN/A
Weather by CustomWeather, © 2014

See weather overview